Location: Doverdale
(52.2833°N, 2.2000°W)
Time: 11:44:50
(UTC+00:00)

Cosmos 883 Rocket - Pass Details

Date: 29 October 2020
Orbit: 950 x 995 km, 83.0° (Epoch: 24 November)

Event Time Altitude Azimuth Distance (km) Brightness Sun altitude
Rises 18:52:34 0° 177° (S) 3,634 7.4 -20.0°
Reaches altitude 10° 18:55:05 10° 174° (S) 2,686 6.7 -20.4°
Maximum altitude 19:01:08 65° 94° (E) 1,047 4.3 -21.3°
Drops below altitude 10° 19:07:12 10° 15° (NNE) 2,689 6.7 -22.3°
Sets 19:09:42 0° 12° (NNE) 3,638 7.4 -22.6°
